カタログに戻る

STARLINK-30604

運用中通信VLEO
NORAD 58075·PAYLOAD·🇺🇸 United States

打ち上げ Oct 18, 2023 から Cape Canaveral Space Force Station

Loading…

次のパス (今後24時間)

TLE

最新Source: CelesTrak SupGP

元期: Sep 14, 2026, 20:51 UTC

1 58075C 23160A   26257.86923611  .00020091  00000+0  72787-3 0  2577
2 58075  42.9989  89.3442 0001316 269.5800 330.6071 15.27559969    18

AllMySatでSTARLINK-30604をリアルタイム追跡

Download on the App Store